Hors Challenge

Le Trail Des Rois Barges - Harzée (22.00 km)

samedi 11 janvier 2020

Vous pouvez trouver Le classement original sur : https://www.goaltiming.be
 
LE TRAIL DES ROIS BARGES - HARZÉE
DISTANCE : 21.96 km
samedi 11 janvier 2020
 
Place dos NOM Catégorie Pl/cat temps temps/km Vitesse
01:00:00              
1 119 GUILLAUME DENEFFE SEH 1 1:40:36 04:35 13.10
2 149 TOM FISCHER SEH 2 1:42:37 04:40 12.84
3 375 WILLIAM WEYNAND SEH 3 1:42:37 04:40 12.84
4 319 FRANCOIS ROUCHET SEH 4 1:44:27 04:45 12.62
5 279 MAXIME MONFORT SEH 5 1:44:58 04:47 12.56
6 357 FRANCOIS VAN DER OUDERAA SEH 6 1:45:18 04:48 12.52
7 294 MANU ORDONEZ SEH 7 1:47:43 04:54 12.23
8 254 FABIAN MAGNEE V1 1 1:48:11 04:56 12.18
9 243 JULIEN LEONARD SEH 8 1:48:18 04:56 12.17
10 186 JEREMY HAID SEH 9 1:49:52 05:00 12.00
11 358 PIERRE VAN HAREN SEH 10 1:50:21 05:01 11.94
12 225 BENOIT LAMBOTTE XXX   1:50:44 05:02 11.90
13 367 MARIN VERSCHEURE SEH 11 1:51:32 05:05 11.82
14 288 JULIEN NICOLET SEH 12 1:52:23 05:07 11.73
15 369 PATRICK VERTE V1 2 1:53:08 05:09 11.65
16 211 GILLES JEROME V1 3 1:53:10 05:09 11.65
17 49 SEBASTIEN BURETTE SEH 13 1:53:30 05:10 11.61
18 384 XAVIER HONNAY SEH 14 1:53:38 05:10 11.60
19 514 SEBASTIEN DAUNE SEH 15 1:53:47 05:11 11.58
20 78 CLEMENT COUNET SEH 16 1:53:52 05:11 11.57
21 174 JULIEN GOUBAU SEH 17 1:53:58 05:11 11.56
22 109 GILLES DELMEE SEH 18 1:53:59 05:11 11.56
23 339 NICOLAS SPINEUX SEH 19 1:54:07 05:12 11.55
24 521 ANTOINE MARTIN SEH 20 1:54:03 05:12 11.56
25 72 THOMAS GOUBAU SEH 21 1:54:38 05:13 11.50
26 159 SEBASTIEN GEORIS V1 4 1:55:13 05:15 11.44
27 185 GERALD GYSEN V1 5 1:55:20 05:15 11.43
28 59 BENJAMIN CHAPA V1 6 1:55:42 05:16 11.39
29 220 WILLIAM LACROSSE SEH 22 1:56:20 05:18 11.33
30 30 CHRISTOPHE BERNARD V1 7 1:56:27 05:18 11.32
31 383 SIMON MEIERS SEH 23 1:56:29 05:18 11.31
32 246 PIERRE LEYENS V1 8 1:57:04 05:20 11.26
33 102 THIBAUT DEGRAVE SEH 24 1:57:32 05:21 11.21
34 377 JULIEN WILLEMS SP SEH 25 1:57:40 05:21 11.20
35 195 SEBASTIEN HENROTTE V1 9 1:57:45 05:22 11.19
36 296 EMMANUEL ORTILLON V1 10 1:58:05 05:23 11.16
37 520 RENAUD GODEFROID SEH 26 1:58:05 05:23 11.16
38 297 VINCENT OST V1 11 1:58:21 05:23 11.14
39 360 RENAUD VAN WETTER V1 12 1:58:38 05:24 11.11
40 22 THIBAULT BASTIN SEH 27 1:58:48 05:25 11.09
41 126 JIMMY DEVOS V1 13 1:59:12 05:26 11.06
42 204 FRANCOIS JACOB SEH 28 2:00:19 05:29 10.95
43 321 BENOIT RULOT V1 14 2:00:53 05:30 10.90
44 128 ADRIEN DEWANDRE SEH 29 2:01:15 05:31 10.87
45 20 THIBAUT AUSTEN SEH 30 2:01:32 05:32 10.84
46 48 DIDIER BRUYERE V1 15 2:01:40 05:32 10.83
47 37 JEAN-ROCH BONHOMME SEH 31 2:01:54 05:33 10.81
48 100 JONATHAN DEGRAVE SEH 32 2:02:10 05:34 10.79
49 41 SAMUEL BOURS SEH 33 2:02:24 05:34 10.77
50 237 LUDOVIC LEMAIRE SEH 34 2:02:41 05:35 10.74
51 95 JEAN-FRANCOIS DEBEN SEH 35 2:03:06 05:36 10.71
52 172 XAVIER GOMEZ V1 16 2:03:12 05:37 10.70
53 517 DAMIEN PIETTE V1 17 2:03:12 05:37 10.70
54 363 NICOLAS VANHEESBEKE SEH 36 2:03:19 05:37 10.69
55 315 PIERRE RENSON SEH 37 2:03:26 05:37 10.68
56 518 GAUTHIER BOCLINVILLE SEH 38 2:03:29 05:37 10.67
57 142 ROMAIN ESTE SEH 39 2:03:39 05:38 10.66
58 303 GAUTIER PIJCKE XXX   2:03:44 05:38 10.65
59 135 MAXIME DONNEAU SEH 40 2:04:06 05:39 10.62
60 259 LAURENT MALISOUX V1 18 2:05:16 05:42 10.52
61 323 CHRIS-OLIVIER SAGNARD SEH 41 2:05:15 05:42 10.52
62 317 IGNACIO ROJO CEBRECOS V1 19 2:05:50 05:44 10.47
63 334 ANTHONY SERON SEH 42 2:05:56 05:44 10.46
64 208 GUILLAUME JAMART SEH 43 2:06:13 05:45 10.44
65 18 PATRICK DAINE SEH 44 2:07:37 05:49 10.33
66 203 ROBBIE TERMEER SEH 45 2:07:55 05:49 10.30
67 519 CHRISTOPHE GREATTI SEH 46 2:07:57 05:50 10.30
68 28 YANNICK BELVAUX SEH 47 2:09:54 05:55 10.15
69 83 CEDRIC CRAHAY V1 20 2:10:40 05:57 10.09
70 282 ERIC MOUSSEBOIS SEH 48 2:10:48 05:57 10.08
71 61 MATHIEU CHAPEAU SEH 49 2:10:44 05:57 10.08
72 97 SANDRA DEDEE V1 21 2:11:06 05:58 10.05
73 316 CAROLINE RIJS SED 1 2:11:08 05:58 10.05
74 271 VINCENT MATHIEU SEH 50 2:11:06 05:58 10.05
75 270 LOUIS MATHIEU SEH 51 2:11:24 05:59 10.03
76 382 MORGAN TAZIAUX SEH 52 2:12:03 06:01 9.98
77 146 JEAN-FRANCOIS FAUCONNIER V2 1 2:12:05 06:01 9.98
78 391 DAMIEN THIBERT SEH 53 2:12:12 06:01 9.97
79 368 ERIC VERSCHUEREN V2 2 2:12:24 06:02 9.95
80 245 FREDERIC LEYENS V1 22 2:12:27 06:02 9.95
81 230 GREGORY LECLERCQ SEH 54 2:12:38 06:02 9.94
82 157 FABRICE GARCIA V1 23 2:12:41 06:02 9.93
83 324 CHRISTOPHE LEJEUNE V2 3 2:12:38 06:02 9.94
84 277 KEVIN MIEVIS SEH 55 2:13:29 06:05 9.87
85 85 VINCENT DAELEN V1 24 2:13:58 06:06 9.84
86 60 FRANCOIS CHAPEAU V1 25 2:14:06 06:06 9.83
87 90 THOMAS DANZE SEH 56 2:14:14 06:07 9.82
88 82 NICOLAS COURTOY SEH 57 2:14:16 06:07 9.82
89 299 DAVID PAWELKOWSKI V1 26 2:14:29 06:07 9.80
90 292 ANTOINE FONTAINE SEH 58 2:12:59 06:03 9.91
91 196 VINCENT HENRY V1 27 2:14:42 06:08 9.78
92 284 ERIC NEUTELEERS V2 4 2:14:57 06:09 9.77
93 31 TANGUY BERTE SEH 59 2:15:00 06:09 9.76
94 106 VIRGINIE DELEAU SED 2 2:15:29 06:10 9.73
95 127 YANNICK DEWAEL V1 28 2:15:39 06:11 9.72
96 306 GAUTHIER PIRET SEH 60 2:15:40 06:11 9.71
97 290 XAVIER NOKIN V2 5 2:15:46 06:11 9.71
98 156 SEBASTIEN FRERE SEH 61 2:16:41 06:13 9.64
99 43 FREDERIC BOVY V1 29 2:17:11 06:15 9.61
100 325 JEREMY MUNAUT V1 30 2:17:18 06:15 9.60
101 515 FREDERIC GOFFLOT V1 31 2:17:37 06:16 9.58
102 285 LOIC NEUVILLE SEH 62 2:17:48 06:16 9.56
103 138 OLIVIA FLORES A1 1 2:17:46 06:16 9.57
104 267 CEDRIC MASSOZ V1 32 2:17:54 06:17 9.56
105 206 ADRIEN JACQUES SEH 63 2:17:57 06:17 9.55
106 17 SIMON ANTOINE SEH 64 2:18:03 06:17 9.55
107 233 MARTIN LEDANT SEH 65 2:18:10 06:17 9.54
108 42 BERTRAND BOURSEAU SEH 66 2:18:32 06:18 9.51
109 235 GREGORY LEJEUNE SEH 67 2:18:51 06:19 9.49
110 192 LAURENT HEINE V1 33 2:18:54 06:19 9.49
111 158 WALTER GEELEN SEH 68 2:19:02 06:20 9.48
112 373 THOMAS WAUTERS SEH 69 2:19:21 06:21 9.46
113 217 SAMUEL KERFF SEH 70 2:19:40 06:22 9.44
114 187 LEANDRE BERGER SEH 71 2:18:31 06:18 9.51
115 94 ROBIN HENQUINET SEH 72 2:20:14 06:23 9.40
116 276 NICOLAS MICHEL V1 34 2:20:20 06:23 9.39
117 87 FREDERIC DALLE V1 35 2:20:34 06:24 9.38
118 247 JEREMY CROS SEH 73 2:20:33 06:24 9.38
119 201 LAURIANNE HOET SED 3 2:20:45 06:24 9.36
120 55 CEDRIC CARRETTE V1 36 2:20:36 06:24 9.37
121 170 ANNE GODON A1 2 2:20:54 06:25 9.35
122 385 LAETITIA MONFORT SED 4 2:21:10 06:26 9.34
123 354 JULIEN TYCHON SEH 74 2:21:21 06:26 9.32
124 326 PIERRE SAUVAGE SEH 75 2:21:23 06:26 9.32
125 39 FERGUS BONNEVIE SEH 76 2:21:33 06:27 9.31
126 209 JEROEN JANSSENS V2 6 2:21:58 06:28 9.28
127 214 BENOIT KEDZIERSKI V1 37 2:22:20 06:29 9.26
128 240 FREDERIC LENOIR V1 38 2:22:36 06:30 9.24
129 99 RAPHAEL DEGIMBE V1 39 2:22:39 06:30 9.24
130 390 CHRISTOPHE BARBIER V1 40 2:22:48 06:30 9.23
131 274 GEOFFREY MEYER SEH 77 2:23:34 06:32 9.18
132 34 CEDRIC GUIOT V1 41 2:23:54 06:33 9.16
133 101 NADIA DEGRAVE SED 5 2:24:23 06:34 9.13
134 108 ALAIN DELFOSSE SEH 78 2:24:50 06:36 9.10
135 266 STEPHANE MARVILLE V1 42 2:25:14 06:37 9.07
136 165 STEPHANE GIACCHETTA V1 43 2:25:24 06:37 9.06
137 342 MICHEL THEATRE V1 44 2:25:23 06:37 9.06
138 121 EMMA DESFORGES A2 1 2:25:31 06:38 9.06
139 257 GAETAN SEPULCHRE SEH 79 2:25:14 06:37 9.07
140 115 ANTOINE DEMELENNE SEH 80 2:25:51 06:38 9.04
141 219 ERWIN KUYPERS V1 45 2:26:01 06:39 9.03
142 345 SAMUEL THIRY V1 46 2:26:28 06:40 9.00
143 248 EMMANUEL LOMBA V1 47 2:26:37 06:41 8.99
144 344 NICOLAS THIRY SEH 81 2:26:28 06:40 9.00
145 223 QUENTIN LAMBILLON SEH 82 2:26:44 06:41 8.98
146 154 DAMIEN FOURNAL V1 48 2:26:46 06:41 8.98
147 283 GAETAN NAUDTS SEH 83 2:26:45 06:41 8.98
148 311 VANESSA RASQUINET A1 3 2:26:59 06:42 8.97
149 336 MAXIME SOHET SEH 84 2:27:54 06:44 8.91
150 45 NICOLAS BRIAMONT XXX   2:28:15 06:45 8.89
151 222 SIMON LAMBERT SEH 85 2:29:08 06:47 8.84
152 361 STEPHAN VANDENBROUCK V1 49 2:29:14 06:48 8.83
153 338 MANU SOMJA V1 50 2:29:22 06:48 8.82
154 302 GILLES DECLOUX V1 51 2:29:41 06:49 8.80
155 232 BRUNO LEDANT V1 52 2:29:51 06:49 8.79
156 234 THIERRY LEDOUX V2 7 2:30:07 06:50 8.78
157 35 STEPHANIE BLOCKX A1 4 2:30:15 06:50 8.77
158 74 JEAN-BENOIT CONSTANT SEH 86 2:30:05 06:50 8.78
159 320 CEDRIC ROYEN SEH 87 2:30:16 06:50 8.77
160 207 FREDERIC JACQUES V1 53 2:31:25 06:54 8.70
161 161 OLIVIER GERARD SEH 88 2:31:35 06:54 8.69
162 113 DAVID DELVAUX SEH 89 2:31:33 06:54 8.70
163 318 HUGUES ROSA V1 54 2:31:26 06:54 8.70
164 346 SEVERINE THONNARD SED 6 2:31:27 06:54 8.70
165 189 NICOLAS HANOSSET V1 55 02:32:19 06:56 8.65
166 54 THOMAS CARRAGLIA SEH 90 02:32:28 06:56 8.64
167 386 ROMAIN MOUSNY SEH 91 02:32:25 06:56 8.65
168 194 ARNAUD HENROTIN SEH 92 02:32:37 06:57 8.64
169 327 MAXENCE SCAFS SEH 93 02:32:59 06:58 8.61
170 305 AMAURY PIRET SEH 94 02:33:11 06:58 8.60
171 335 JEAN-MARC SERVAIS V1 56 02:33:07 06:58 8.61
172 168 PHILIPPE GILTAIX V1 57 02:33:06 06:58 8.61
173 291 NICOLAS OLIVEIRA SEH 95 02:33:08 06:58 8.61
174 182 GUILLAUME GUSTIN SEH 96 02:33:34 06:59 8.58
175 104 YANNICK DELBROUCK V1 58 02:34:46 07:03 8.52
176 258 BENJAMIN MALENGREAUX SEH 97 02:35:00 07:03 8.50
177 86 LUDOVIC DALLA CORTE SEH 98 02:35:21 07:04 8.48
178 226 VIRGINIE LAMOUR SED 7 02:35:20 07:04 8.48
179 193 CHRISTOPHE HENRARD SEH 99 02:35:43 07:05 8.46
180 381 DAVID BERTRAND V1 59 02:35:37 07:05 8.47
181 32 THOMAS COURTIN SEH 100 02:36:01 07:06 8.45
182 116 CEDRIC DEMOITIE SEH 101 02:36:00 07:06 8.45
183 136 OLIVIER DONY V1 60 02:36:28 07:07 8.42
184 314 PHILIPPE RENIER V1 61 02:36:24 07:07 8.43
185 147 X XX XXX   02:36:34 07:08 8.42
186 392 SYLVIE NYSSEN A1 5 02:36:48 07:08 8.40
187 123 SEBASTIEN DESSY V1 62 02:37:12 07:09 8.38
188 190 NICOLAS HAULET V1 63 02:37:33 07:10 8.36
189 280 PIERRE MONSEUR SEH 102 02:37:35 07:10 8.36
190 387 MURIELLE GARROY A1 6 02:38:06 07:12 8.34
191 163 FABIAN GERMAIN XXX   02:38:04 07:12 8.34
192 308 GEOFFREY PRINSENS SEH 103 02:38:24 07:13 8.32
193 287 JULIE NEUVILLE SED 8 02:38:45 07:14 8.30
194 353 MAELLE TYBERGHEIN SED 9 02:38:50 07:14 8.30
195 38 STEPHANE BONJEAN V1 64 02:39:14 07:15 8.28
196 200 REMY HERMESSE V1 65 02:39:42 07:16 8.25
197 388 DIDIER CATALDO V2 8 02:40:18 07:18 8.22
198 394 RODOLPHE DURIEUX V1 66 02:39:50 07:17 8.25
199 14 GERALD ALEXANDRE V1 67 02:40:22 07:18 8.22
200 15 SEBASTIEN ALEXANDRE V1 68 02:40:24 07:18 8.22
201 198 FRANCOIS HERMAN SEH 104 02:40:50 07:19 8.19
202 52 ROBERTO SUERO V1 69 02:41:04 07:20 8.18
203 238 MATTHIEU LEMAIRE V1 70 02:42:00 07:23 8.13
204 51 OLIVIER BUSTIN V1 71 02:42:16 07:23 8.12
205 356 FRANCOIS DETAILLE SEH 105 02:42:20 07:23 8.12
206 331 JEAN-MARC SCHILLEWAERT V1 72 02:42:18 07:23 8.12
207 68 OLIVIER GASPARD SEH 106 02:42:19 07:23 8.12
208 355 MAXIME BBX SEH 107 02:43:16 07:26 8.07
209 120 JEAN-FRANCOIS DESADELEER V1 73 02:43:13 07:26 8.07
210 69 JULIEN BEONI V1 74 02:43:19 07:26 8.07
211 16 MARCO ALONSO HERNANDEZ SEH 108 02:43:18 07:26 8.07
212 177 ANNICK GRANDJEAN A1 7 02:43:32 07:27 8.06
213 253 GEORGIOS MAKRYGIANNIS SEH 109 02:44:02 07:28 8.03
214 351 JONATHAN TRIGAUX SEH 110 02:44:09 07:28 8.03
215 380 CARMELO ARGENTO SEH 111 02:44:08 07:28 8.03
216 293 GERALDINE ORBAN SED 10 02:44:18 07:29 8.02
217 160 FRANCOIS GERARD V1 75 02:44:22 07:29 8.02
218 260 PATRICK MALYSZEWSKA V1 76 02:44:38 07:30 8.00
219 275 GREG MEYERS V1 77 02:45:10 07:31 7.98
220 81 THIERRY CARPENTIER V1 78 02:45:23 07:32 7.97
221 393 BRIEUC FENEUIL SEH 112 02:45:51 07:33 7.95
222 313 JOEL RENARD V2 9 02:45:50 07:33 7.95
223 167 SEBASTIEN GILSON SEH 113 02:46:23 07:35 7.92
224 181 BERNARD GRZESINSKI V2 10 02:46:59 07:36 7.89
225 98 CAROLINE DEGBOMONT A1 8 02:47:01 07:36 7.89
226 218 PIERRE KIRTEN SEH 114 02:47:25 07:37 7.87
227 129 NOELLE DEWULF A1 9 02:47:26 07:37 7.87
228 112 ANNE DELVAUX A2 2 02:47:26 07:37 7.87
229 286 PIERRE NEUVILLE V2 11 02:47:27 07:37 7.87
230 141 CATHERINE DUPONT SED 11 02:47:29 07:38 7.87
231 152 CINDY FONTAINE SED 12 02:47:57 07:39 7.85
232 210 SIMON JAUMAIN SEH 115 02:48:09 07:39 7.84
233 25 DENIS BEAUJEAN V1 79 02:49:46 07:44 7.76
234 155 PIERRE FRANCOTTE V1 80 02:50:10 07:45 7.74
235 212 YANNICK JOSKIN V1 81 02:50:10 07:45 7.74
236 19 QUENTIN GIANNINI SEH 116 02:50:44 07:46 7.72
237 371 VIVIANE WARNOTTE A1 10 02:50:54 07:47 7.71
238 77 ALBIN CORNIL SEH 117 02:50:52 07:47 7.71
239 263 AXEL MARNEFFE SEH 118 02:52:08 07:50 7.66
240 244 REGIS LEROY XXX   02:52:08 07:50 7.66
241 251 LAURENT LOUYET V1 82 02:52:03 07:50 7.66
242 93 JEFFRY DE VRIENDT SEH 119 02:52:15 07:51 7.65
243 304 HERVE PIOT SEH 120 02:52:19 07:51 7.65
244 175 DAVID GRAEVEN V1 83 02:52:31 07:51 7.64
245 359 BENOIT VAN PUYMBROECK SEH 121 02:52:38 07:52 7.63
246 111 VINCENT DELSAUTE V1 84 02:53:23 07:54 7.60
247 166 EMMANUELLE GIACOMELLI A1 11 02:53:58 07:55 7.58
248 289 CYRIL NOEL SEH 122 02:54:20 07:56 7.56
249 236 LIONEL LEMAIRE V1 85 02:54:18 07:56 7.56
250 92 FABRICE DE GREGORIO V1 86 02:54:17 07:56 7.56
251 133 LAURENT DISPAS V1 87 02:54:49 07:58 7.54
252 67 BENOIT LAMBERT V2 12 02:54:54 07:58 7.53
253 124 VALERY DESSY V1 88 02:55:06 07:58 7.53
254 151 CAROLINE FLAGOTHIER A1 12 02:55:15 07:59 7.52
255 379 JOFFREY WUIDAR SEH 123 02:55:14 07:59 7.52
256 229 JEANINE COLALILLO A2 3 02:55:29 07:59 7.51
257 250 ERIC LORPHEVRE V1 89 02:56:08 08:01 7.48
258 255 XAVIER MAGONETTE SEH 124 02:56:39 08:03 7.46
259 376 GAETAN WILLEMS V1 90 02:57:24 08:05 7.43
260 341 REGINALD STAMPE V1 91 02:57:43 08:05 7.42
261 137 RENAUD DOUFFET SEH 125 02:58:46 08:08 7.37
262 180 LUDOVIC GRODENT SEH 126 03:00:07 08:12 7.32
263 312 PHILIPPE REMY V2 13 03:00:00 08:12 7.32
264 88 MATHIAS DALLE V1 92 03:00:53 08:14 7.29
265 140 ANNE DUPLAT XXX   03:00:49 08:14 7.29
266 273 MARC MAZZULLI V1 93 03:02:51 08:19 7.21
267 322 ANTOINE SAFIN V1 94 03:03:42 08:22 7.17
268 79 VINCENT LAPRERIE SEH 127 03:05:19 08:26 7.11
269 328 VINCENT SCAILLET V2 14 03:05:30 08:27 7.10
270 105 ARIANE DELCOUR SED 13 03:05:53 08:28 7.09
271 23 DAMIEN BAUGNIET SEH 128 03:06:41 08:30 7.06
272 91 LUC DASNOIS V1 95 03:06:41 08:30 7.06
273 262 CHRISTOPHE MARECHAL SEH 129 03:06:55 08:31 7.05
274 261 MARIE-PIERRE MARCHAND A1 13 03:07:11 08:31 7.04
275 47 MARTINE BRUNE A1 14 03:08:02 08:34 7.01
276 329 THIERRY SCALCO V1 96 03:07:58 08:33 7.01
277 50 GILLES BUSSCHOTS SEH 130 03:08:25 08:35 6.99
278 281 LUDOVIC MOSSOUX V1 97 03:09:04 08:36 6.97
279 58 JEFF CHAMPON V1 98 03:09:23 08:37 6.96
280 56 RENAUD CASPERS V1 99 03:09:58 08:39 6.94
281 350 CHRISTOPHE TOUSSAINT V1 100 03:12:31 08:46 6.85
282 33 BENOIT BLANPAIN V1 101 03:12:45 08:47 6.84
283 268 DANIEL MASY V3 1 03:14:02 08:50 6.79
284 65 MARIE CHARLIER A1 15 03:15:53 08:55 6.73
285 197 DELPHINE HERMAN SED 14 03:15:55 08:55 6.73
286 337 LAURE SOMJA SED 15 03:17:03 08:58 6.69
287 76 BEATRICE CORMANN A1 16 03:17:04 08:58 6.69
288 143 FABRICE SEPULT V1 102 03:18:11 09:01 6.65
289 118 JOSE DEMONCEAU V2 15 03:17:57 09:01 6.66
290 75 CHRISTOPHE CORBIAUX V1 103 03:18:48 09:03 6.63
291 57 HELENE CHAMPAGNE SED 16 03:20:48 09:09 6.56
292 153 LAURENCE FORTHOMME A1 17 03:20:49 09:09 6.56
293 107 AMANDINE DELETANG LAFRATTA SED 17 03:22:59 09:14 6.49
294 199 PHILIPPE HERMAN V3 2 03:28:32 09:30 6.32
295 145 PATRICK FALQUE V2 16 03:28:33 09:30 6.32
296 162 VALERIE GERARD A1 18 03:28:41 09:30 6.32
297 362 JEAN-DENIS VANESSE V2 17 03:34:05 09:45 6.16
298 395 ISMAEL HAMRONI SEH 131 03:38:43 09:57 6.03
299 84 FLORENT CUISSET SEH 132 03:38:42 09:57 6.03
300 264 VANESSA MARQUET SED 18 03:40:17 10:02 5.98
301 265 VIVIEN MARQUET SEH 133 03:40:18 10:02 5.98
302 301 MORGANE PHILIPPART A2 4 03:43:19 10:10 5.90
303 300 FRANCOIS PERNIAUX V2 18 03:43:20 10:10 5.90
304 227 CATHERINE LAMURY A1 19 04:12:46 11:30 5.21
305 365 LUDOVIC VERBAENEN SED 19 04:12:47 11:31 5.21
306 298 JEAN-LOUP PAQUEY XXX   04:14:21 11:35 5.18
307 372 JEAN-FRANCOIS WARNY V1 104 04:14:20 11:35 5.18
308 252 BENOIT LUTHERS V2 19 04:14:21 11:35 5.18
309 27 AGNES PARMENTIER A1 20 04:14:42 11:36 5.17
310 256 RICHARD PERES V2 20 04:15:26 11:38 5.16